Location: Esperde
(52.0261°N, 9.5145°E)
Time: 05:46:18
(UTC+00:00)

Daily predictions for brighter satellites

Satellite Brightness Start Highest point End
(mag) Time Altitude Azimuth Time Altitude Azimuth Time Altitude Azimuth
SL-16 R/B 3.8 00:16:47 36° NNE 00:16:47 36° NNE 00:21:01 10° N
SL-16 R/B 4.1 00:39:05 25° N 00:39:05 25° N 00:41:58 10° NNE
ADEOS II 4.1 00:39:34 10° NE 00:42:13 23° ENE 00:42:13 23° ENE
ATLAS 5 CENTAUR R/B 4.3 01:00:34 17° NNE 01:00:34 17° NNE 01:01:54 10° NE
Cosmos 1821 Rocket 4.4 01:22:58 59° NE 01:22:58 59° NE 01:28:09 10° NNE
Cosmos 2123 Rocket 4.4 01:23:39 10° N 01:29:41 60° ENE 01:29:41 60° ENE
ATLAS CENTAUR R/B 4.3 01:36:30 13° ESE 01:36:30 13° ESE 01:38:42 10° E
Resurs 1-4 Rocket 3.2 01:34:11 10° NNE 01:37:26 38° N 01:37:26 38° N
Cosmos 1697 Rocket 3.3 01:36:04 10° NNW 01:41:38 54° NE 01:47:11 10° SE
CZ-2D R/B 3.1 01:39:25 10° N 01:42:55 40° N 01:42:55 40° N
ALOS 4.3 01:48:14 10° NE 01:51:56 23° E 01:53:05 21° ESE
IDEFIX/ARIANE 42P 3.2 01:47:46 10° NNE 01:51:47 53° NNE 01:51:47 53° NNE
SL-16 R/B 3.8 02:01:53 27° NW 02:01:53 27° NW 02:04:45 10° NNW
IRS-1D 4.1 01:57:30 10° NNE 02:02:43 51° E 02:02:58 51° ESE
Lacrosse 4 Rocket 3.9 02:18:00 10° NNW 02:21:22 22° NNE 02:24:47 10° E
Cosmos 1666 Rocket 4.2 02:17:24 10° N 02:21:48 54° ENE 02:22:03 53° E
Cosmos 1980 Rocket 2.7 02:16:55 10° NNW 02:22:28 56° NE 02:27:58 10° SE
SL-16 R/B 4.4 02:20:57 12° NW 02:22:43 14° NNW 02:25:37 10° NNE
Meteor 2-11 Rocket 4.3 02:23:15 75° WSW 02:23:32 76° WNW 02:29:43 10° N
ADEOS II 2.6 02:18:55 10° N 02:23:08 48° NNW 02:23:08 48° NNW
Cosmos 1536 4.3 02:22:00 10° N 02:25:45 36° ENE 02:28:19 18° SE
Cosmos 1151 Rocket 3.7 02:28:11 49° E 02:28:18 49° E 02:32:27 10° NNE
Helios 1B rocket 4.5 02:26:18 10° NE 02:29:42 25° E 02:31:46 17° SE
Cosmos 1346 Rocket 4.3 02:30:39 31° ESE 02:31:21 33° E 02:34:56 10° NNE
Cosmos 2369 3.9 02:28:02 10° NNW 02:33:45 70° ENE 02:39:23 10° SE
USA 305 3.7 02:36:49 44° ESE 02:36:49 44° ESE 02:40:01 10° ENE
ARIANE 5 R/B 4.3 02:33:44 10° NE 02:38:06 29° E 02:42:25 10° SSE
SL-16 R/B 4.0 02:37:25 10° NNW 02:42:24 30° NE 02:47:22 10° ESE
ATLAS 5 CENTAUR R/B 3.6 02:42:00 18° NNW 02:43:31 21° N 02:47:18 10° NE
Cosmos 676 Rocket 3.9 02:42:16 10° NNW 02:47:32 89° ENE 02:52:47 10° SSE
Cosmos 1515 4.1 02:51:55 55° ESE 02:52:10 56° E 02:55:51 10° NNE
Cosmos 1470 Rocket 4.1 02:48:57 10° N 02:53:14 56° ENE 02:57:31 10° SSE
Meteor 1-10 Rocket 4.3 02:53:15 28° S 02:56:17 76° E 03:01:57 10° NNE
Cosmos 482 Debris 4.4 02:57:53 56° ESE 02:57:53 56° ESE 03:01:31 10° ESE
Cosmos 1624 Rocket 4.2 02:56:12 37° S 02:58:19 72° ESE 03:03:39 10° NNE
MSX 4.3 02:56:57 10° N 03:02:17 40° WNW 03:02:59 39° W
FENGYUN 3A 3.5 02:57:27 10° NNE 03:02:51 82° WNW 03:05:03 37° SSW
Cosmos 1833 Rocket 2.6 03:01:05 44° SSW 03:02:59 87° WNW 03:08:42 10° NNE
CENTAUR R/B 4.1 02:59:15 10° S 03:04:18 30° ESE 03:10:12 10° NE
Cosmos 44 Rocket 4.4 03:02:24 22° S 03:04:46 38° ESE 03:09:08 10° NE
Cosmos 1447 Rocket 4.4 03:00:56 10° NNW 03:07:12 66° W 03:13:22 10° S
COSMOS 2455 4.5 03:03:09 10° NNW 03:08:32 32° NNE 03:13:53 10° E
Cosmos 1484 Rocket 4.4 03:06:06 10° NNE 03:09:47 35° E 03:13:26 10° SSE
Meteor 1-4 Rocket 2.6 03:09:23 10° NNW 03:12:36 65° NW 03:12:36 65° NW
Cosmos 1371 Rocket 3.9 03:10:55 37° SSW 03:13:03 84° WNW 03:18:19 10° NNE
ATLAS CENTAUR R/B 2.0 03:12:30 36° SSW 03:14:24 68° SE 03:19:14 10° NE
USA 307 2.8 03:13:49 57° SSW 03:14:28 69° SSE 03:18:36 10° ENE
METEOR-M 4.4 03:10:38 10° NNE 03:16:00 70° ESE 03:21:20 10° S
SL-19 R/B 4.4 03:09:51 10° NNE 03:16:08 85° WNW 03:20:31 20° SSW
Resurs 1-4 Rocket 3.9 03:15:24 10° NNW 03:18:24 15° NW 03:18:30 15° NW
IRS-P3 4.5 03:14:33 10° NNE 03:19:54 65° ESE 03:25:11 10° S
ERBS 2.6 03:21:13 46° N 03:21:13 46° N 03:23:42 10° ENE
CZ-2D R/B 3.9 03:20:55 10° NNW 03:23:52 15° NW 03:24:14 15° NW
Cosmos 2082 Rocket 2.6 03:19:35 15° SSW 03:24:15 62° ESE 03:29:48 10° NE
Cosmos 1697 Rocket 3.8 03:20:24 10° NW 03:27:50 23° SSW 03:30:22 10° SSW
USA 306 2.7 03:24:27 50° WSW 03:25:29 84° SSE 03:29:37 10° ENE
ALOS 2.4 03:25:03 10° N 03:29:38 55° WNW 03:31:32 32° SW
NOSS 3-2 (A) 4.4 03:24:57 10° S 03:30:04 41° ESE 03:36:00 10° NE
Cosmos 2360 Rocket 3.9 03:25:49 10° NNW 03:30:53 32° NE 03:35:54 10° ESE
CZ-2C R/B 2.5 03:25:46 10° S 03:31:00 75° WSW 03:36:25 10° NNW
Meteor 1-11 Rocket 3.9 03:26:06 10° NNW 03:31:55 53° W 03:37:39 10° S
IDEFIX/ARIANE 42P 4.1 03:28:20 10° N 03:32:01 20° NW 03:32:34 19° WNW
EO 1 Del DPAF 4.0 03:29:17 10° N 03:31:37 29° NW 03:31:37 29° NW
BREEZE-M DEB (TANK) 2.3 03:32:42 47° SSW 03:32:42 47° SSW 03:34:58 10° ESE
Cosmos 1850 Rocket 4.0 03:27:33 10° NNW 03:32:55 87° ENE 03:38:17 10° SSE
Cosmos 1743 3.0 03:31:31 10° NNW 03:35:08 42° W 03:35:15 41° W
Cosmos 1975 4.3 03:31:42 10° N 03:35:29 38° ENE 03:39:12 10° SE
CZ-2C R/B 2.4 03:30:43 10° N 03:35:42 63° WNW 03:38:51 21° SW
CBERS-1 4.2 03:31:20 10° N 03:36:16 49° WNW 03:38:49 26° SW
Cosmos 1605 Rocket 4.3 03:33:49 27° WSW 03:36:33 42° WNW 03:42:20 10° N
Cosmos 1954 Rocket 4.5 03:32:53 10° NW 03:37:38 36° WSW 03:42:24 10° SSW
Cosmos 1459 Rocket 4.1 03:31:22 10° S 03:37:44 85° E 03:44:09 10° N
COSMOS 2406 3.2 03:34:02 19° SSW 03:38:10 87° WNW 03:43:53 10° NNE
Cosmos 2346 Rocket 4.3 03:33:03 10° NNW 03:39:04 68° W 03:45:07 10° S
PAYLOAD A 3.9 03:34:57 10° N 03:39:41 61° WNW 03:43:09 19° SW
IRS-1D 4.5 03:37:05 10° N 03:41:43 31° WNW 03:43:26 25° W
Cosmos 2056 Rocket 3.6 03:40:20 26° SW 03:43:01 55° WNW 03:48:04 10° NNE
Cosmos 1441 Rocket 3.2 03:42:10 30° SW 03:43:45 57° WNW 03:47:29 10° N
Cosmos 1633 Rocket 3.8 03:41:12 10° NNW 03:45:01 30° W 03:45:35 29° WSW
DELTA 2 DEB (DPAF) 4.1 03:40:42 10° S 03:45:03 62° WSW 03:49:27 10° NNW
Tsikada Rocket 4.4 03:40:16 10° N 03:46:36 67° ENE 03:52:48 10° SSE
USA 308 2.7 03:46:41 31° WSW 03:48:37 89° NNW 03:52:46 10° ENE
Cosmos 1420 Rocket 4.1 03:46:30 22° SW 03:49:48 57° WNW 03:54:57 10° NNE
X-37B 2.2 03:50:05 19° S 03:50:09 19° S 03:52:17 10° SE
CZ-2C R/B 3.9 03:47:00 10° NNE 03:52:44 61° E 03:58:14 10° S
YAOGAN 6 2.6 03:50:09 10° NNE 03:53:49 84° ESE 03:57:25 10° SSW
Cosmos 1802 Rocket 4.1 03:47:55 10° S 03:54:18 88° E 04:00:38 10° N
H-2A R/B 3.5 03:54:28 10° NNE 03:58:03 51° E 04:01:36 10° S
Cosmos 1933 Rocket 3.6 03:53:48 10° NNW 03:58:11 58° W 04:02:30 10° S
Cosmos 2322 Rocket 2.8 03:52:52 10° NNW 03:58:33 61° NE 04:04:09 10° SE
CZ-2C R/B 4.1 03:56:22 10° NNE 03:59:58 42° E 04:03:37 10° S
Meteor 1-19 Rocket 4.1 03:54:40 10° S 04:00:06 87° ESE 04:05:34 10° NNE
Cosmos 1725 Rocket 4.2 03:54:01 10° S 04:00:20 78° E 04:06:41 10° NNE
Lacrosse 4 Rocket 1.5 03:56:11 10° NW 04:00:33 89° SW 04:04:58 10° SE
Cosmos 1536 3.8 03:58:37 10° NNW 04:01:57 25° W 04:03:43 18° SW
ADEOS II 4.0 04:00:36 10° NNW 04:02:38 12° NW 04:04:03 11° WNW
Cosmos 1741 Rocket 4.0 03:57:32 10° NNW 04:02:41 59° WSW 04:07:48 10° S
Cosmos 1328 Rocket 4.2 04:00:53 19° SW 04:03:25 34° WNW 04:07:29 10° N
PSLV R/B 4.5 03:59:18 10° NNE 04:03:33 51° E 04:07:44 10° S
Spot 4 Rocket 4.3 03:59:05 10° NNE 04:04:14 74° ESE 04:09:22 10° S
Helios 1B rocket 2.9 04:01:08 10° N 04:04:57 39° WNW 04:07:56 15° SW
Cosmos 1151 Rocket 4.3 04:05:02 19° W 04:06:08 21° WNW 04:09:28 10° NNW
Cosmos 1980 Rocket 2.8 04:01:21 10° NW 04:06:11 31° WSW 04:11:01 10° SSW
Cosmos 1346 Rocket 3.8 04:06:06 21° WSW 04:07:39 27° WNW 04:11:04 10° N
Cosmos 2173 Rocket 4.0 04:05:04 10° SSW 04:11:04 58° WNW 04:17:06 10° N
Meteor 2-9 Rocket 4.3 04:06:01 10° NNW 04:11:38 54° W 04:17:04 10° S
GP-B 3.1 04:10:19 10° S 04:14:42 61° W 04:19:07 10° N
USA 305 2.9 04:12:19 18° W 04:15:19 71° N 04:19:26 10° ENE
STPSAT 2 (USA 217) 4.5 04:11:26 10° NNW 04:15:56 77° WSW 04:20:24 10° SSE
ARIANE 5 R/B 2.7 04:12:34 10° N 04:17:25 48° WNW 04:22:12 10° SW
SKYMED 2 3.8 04:14:26 10° SSE 04:18:45 76° ENE 04:23:07 10° NNW
Cosmos 1331 Rocket 4.2 04:14:36 10° SSW 04:19:43 72° ESE 04:24:54 10° NNE
CZ-2D R/B 3.7 04:18:32 10° N 04:22:19 44° WNW 04:26:08 10° SW
Cosmos 2278 4.1 04:19:13 10° NW 04:24:28 39° WSW 04:29:39 10° S
SL-08 R/B 3.9 04:21:36 10° SSW 04:25:50 34° W 04:30:11 10° NNW
SL-24 R/B - RUBIN 2 4.2 04:22:02 10° SSW 04:26:21 56° SE 04:30:39 10° NE
SL-16 R/B 2.2 04:21:21 10° NW 04:27:01 70° WSW 04:32:39 10° SSE
Cosmos 1515 Rocket 4.2 04:23:31 10° SW 04:27:38 37° WNW 04:31:48 10° N
ATLAS 5 CENTAUR R/B 3.6 04:25:12 10° NW 04:29:24 30° NNE 04:34:22 10° E
NOAA 11 4.3 04:25:51 10° NNE 04:31:23 84° ESE 04:36:52 10° SSW
Cosmos 1110 Rocket 4.0 04:27:49 10° SSW 04:33:02 84° WNW 04:38:16 10° NNE
BREEZE M DEB (TANK) 3.8 04:22:13 10° WSW 04:33:07 54° S 04:36:34 10° E
Meteor 1-27 Rocket 4.4 04:28:20 10° SW 04:33:38 36° WNW 04:39:04 10° N
MINOTAUR 4 R/B 4.1 04:31:11 10° S 04:34:38 55° WSW 04:38:06 10° NNW
Cosmos 2228 Rocket 3.1 04:30:46 10° S 04:35:14 90° WSW 04:39:44 10° N
Cosmos 1452 Rocket 3.6 04:30:28 10° SW 04:35:40 59° WNW 04:40:55 10° NNE
Cosmos 1733 3.4 04:35:39 10° N 04:39:23 74° E 04:43:07 10° SSE
USA 290 3.2 04:36:19 10° NNW 04:39:29 51° ENE 04:42:37 10° SE
Envisat 3.2 04:35:03 10° N 04:39:58 50° WNW 04:44:51 10° SW
Meteor 2-19 Rocket 4.5 04:36:35 10° NNW 04:42:42 67° W 04:48:47 10° S
CZ-4C R/B 4.1 04:38:50 10° SSW 04:42:44 35° W 04:46:45 10° NNW
Cosmos 1484 Rocket 3.8 04:40:33 10° N 04:43:58 28° WNW 04:47:21 10° WSW
Cosmos 44 Rocket 3.6 04:41:42 10° WSW 04:46:14 46° NW 04:50:48 10° NE
Meteor 1-18 Rocket 4.2 04:40:44 10° SSW 04:46:24 69° WNW 04:52:01 10° N
Okean 1 4.2 04:43:39 10° SW 04:47:13 29° WNW 04:50:47 10° N
Cosmos 1378 3.9 04:44:20 10° SW 04:47:34 30° WNW 04:50:51 10° N
Cosmos 1833 Rocket 4.0 04:43:10 10° W 04:47:44 24° NW 04:52:19 10° NNE
Meteor 1-29 3.7 04:45:39 10° N 04:48:35 30° WNW 04:51:31 10° SW
Cosmos 968 Rocket 3.5 04:45:32 10° NNW 04:50:40 63° WSW 04:55:43 10° S
SJ 16-02 3.3 04:48:19 10° N 04:52:14 31° NE 04:56:09 10° ESE
ATLAS CENTAUR R/B 2.7 04:49:04 10° W 04:53:31 34° NNW 04:57:55 10° NE
Cosmos 1939 Rocket 3.8 04:49:34 10° NNE 04:53:35 56° E 04:57:30 10° S
Meteor 1-31 Rocket 4.0 04:49:54 10° NNE 04:53:37 48° E 04:57:20 10° S
USA 307 3.0 04:49:48 10° W 04:53:56 66° N 04:58:05 10° E
Cosmos 2016 Rocket 4.4 04:47:54 10° SW 04:53:59 46° WNW 05:00:07 10° N
Cosmos 2219 Rocket 3.1 04:48:26 10° NNW 04:53:59 52° NE 04:59:29 10° SE
CENTAUR R/B 2.7 04:48:10 10° SW 04:54:16 76° NW 05:01:46 10° NE
COSMOS 2455 2.9 04:49:04 10° NW 04:55:08 84° SW 05:01:10 10° SSE
Cosmos 2333 Rocket 2.6 04:51:59 10° NNW 04:57:44 72° ENE 05:03:23 10° SE
